Home   Weather   Trieste   Past weeks
Flag for Italy

Past Weather in Trieste, Italy — Yesterday and Last 2 Weeks

Now
64 °F

Passing clouds.


Feels Like: 64 °F
Forecast: 74 / 64 °F
Wind: 2 mph from Northeast

Location: Trieste

Current Time: Oct 20, 2019 at 11:45:45 pm

Latest Report: Oct 20, 2019 at 10:00 pm


Visibility: 13 mi

Pressure: 30.12 "Hg

Humidity: 96%

Dew Point: 63 °F

Location of TriesteLocation

Past Weather in Trieste — Graph

°F

Trieste Temperature Yesterday

Maximum temperature yesterday: 73 °F (at 2:00 pm)
Minimum temperature yesterday: 59 °F (at 1:00 am)
Average temperature yesterday: 65 °F

High & Low Weather Summary for the Past Weeks

 TemperatureHumidityPressure
High73 °F (Oct 19, 2:00 pm)98% (Oct 11, 10:00 pm)30.24 "Hg (Oct 11, 10:00 pm)
Low51 °F (Oct 8, 7:00 am)33% (Oct 6, 11:00 am)29.81 "Hg (Oct 7, 5:00 am)
Average63 °F78%30.06 "Hg
* Reported Oct 5 10:00 pm — Oct 20 10:00 pm, Trieste. Weather by CustomWeather, © 2019

Note: Actual official high and low records may vary slightly from our data, if they occured in-between our weather recording intervals... More about our weather records

Advertising

Trieste Weather History for the Previous 24 Hours

Scroll right to see more
 ConditionsComfort  
Time TempWeatherWind HumidityBarometerVisibility
10:00 pm
Sun, Oct 20
64 °FPassing clouds.2 mph96%30.12 "Hg12 mi
9:00 pm65 °FPassing clouds.1 mph94%30.11 "Hg6 mi
8:00 pm66 °FPassing clouds.No wind95%30.10 "Hg6 mi
7:00 pm66 °FPassing clouds.2 mph94%30.09 "Hg6 mi
6:00 pm68 °FPartly sunny.1 mph89%30.08 "Hg6 mi
5:00 pm69 °FScattered clouds.1 mph90%30.07 "Hg6 mi
4:00 pm69 °FPartly sunny.1 mph90%30.08 "Hg6 mi
3:00 pm69 °FPartly sunny.2 mph89%30.08 "Hg6 mi
2:00 pm69 °FPartly sunny.3 mph90%30.09 "Hg6 mi
1:00 pm70 °FOvercast.No wind81%30.10 "Hg6 mi
12:00 pm72 °FOvercast.No wind72%30.11 "Hg6 mi
11:00 am70 °FPartly sunny.1 mph77%30.10 "Hg6 mi
10:00 am67 °FPartly sunny.1 mph85%30.10 "Hg6 mi
9:00 am64 °FOvercast.No wind92%30.09 "Hg6 mi
8:00 am63 °FPartly sunny.2 mph95%30.06 "Hg12 mi
7:00 am64 °FPassing clouds.1 mph90%30.06 "Hg12 mi
6:00 am63 °FPassing clouds.No wind89%30.05 "Hg12 mi
5:00 am63 °FPassing clouds.No wind90%30.04 "Hg12 mi
4:00 am64 °FPassing clouds.6 mph87%30.04 "Hg12 mi
3:00 am64 °FPassing clouds.No wind90%30.05 "Hg12 mi
2:00 am64 °FPassing clouds.No wind90%30.06 "Hg12 mi
1:00 am64 °FPassing clouds.No wind90%30.03 "Hg12 mi
12:00 am63 °FPassing clouds.1 mph95%30.06 "Hg12 mi
11:00 pm
Sat, Oct 19
63 °FPassing clouds.1 mph95%30.05 "Hg12 mi
Weather by CustomWeather, © 2019

See weather overview